TimePDT,TemperatureF,Dew PointF,Humidity,Sea Level PressureIn,VisibilityMPH,Wind Direction,Wind SpeedMPH,Gust SpeedMPH,PrecipitationIn,Events,Conditions,WindDirDegrees,DateUTC
12:56 AM,43.0,37.0,80,30.49,10.0,SW,6.9,-,N/A,,Clear,220,2013-05-01 07:56:00
1:56 AM,42.1,37.0,82,30.51,10.0,Calm,Calm,-,N/A,,Partly Cloudy,0,2013-05-01 08:56:00
2:56 AM,39.0,36.0,89,30.51,10.0,ESE,4.6,-,N/A,,Clear,110,2013-05-01 09:56:00
3:56 AM,35.1,34.0,96,30.53,10.0,ESE,4.6,-,N/A,,Clear,110,2013-05-01 10:56:00
4:56 AM,34.0,34.0,100,30.54,10.0,ESE,4.6,-,N/A,,Partly Cloudy,120,2013-05-01 11:56:00
5:56 AM,34.0,34.0,100,30.56,10.0,ESE,5.8,-,N/A,,Scattered Clouds,110,2013-05-01 12:56:00
6:56 AM,36.0,35.1,97,30.58,10.0,ESE,6.9,-,N/A,,Scattered Clouds,110,2013-05-01 13:56:00
7:56 AM,42.1,37.9,85,30.60,10.0,ESE,5.8,-,N/A,,Scattered Clouds,110,2013-05-01 14:56:00
8:56 AM,46.0,37.9,73,30.60,10.0,SE,3.5,-,N/A,,Scattered Clouds,140,2013-05-01 15:56:00
9:56 AM,48.9,37.0,64,30.61,10.0,Calm,Calm,-,N/A,,Mostly Cloudy,0,2013-05-01 16:56:00
10:56 AM,50.0,37.9,63,30.61,10.0,NW,5.8,-,N/A,,Mostly Cloudy,310,2013-05-01 17:56:00
11:56 AM,51.1,37.0,59,30.61,10.0,NW,9.2,-,N/A,,Mostly Cloudy,320,2013-05-01 18:56:00
12:56 PM,54.0,37.9,55,30.61,10.0,NW,10.4,-,N/A,,Overcast,320,2013-05-01 19:56:00
1:56 PM,54.0,33.1,45,30.61,10.0,WNW,8.1,-,N/A,,Overcast,290,2013-05-01 20:56:00
2:56 PM,55.0,37.9,53,30.61,10.0,WNW,6.9,-,N/A,,Mostly Cloudy,300,2013-05-01 21:56:00
3:56 PM,55.0,39.0,55,30.60,10.0,NW,6.9,-,N/A,,Mostly Cloudy,310,2013-05-01 22:56:00
4:56 PM,53.1,39.0,59,30.59,10.0,West,6.9,-,N/A,,Mostly Cloudy,270,2013-05-01 23:56:00
5:56 PM,52.0,39.0,61,30.58,10.0,WNW,4.6,-,N/A,,Mostly Cloudy,290,2013-05-02 00:56:00
6:56 PM,51.1,39.9,66,30.58,10.0,West,6.9,-,N/A,,Mostly Cloudy,260,2013-05-02 01:56:00
7:56 PM,48.0,39.9,74,30.57,10.0,West,6.9,-,N/A,,Mostly Cloudy,260,2013-05-02 02:56:00
8:56 PM,46.9,42.1,83,30.58,10.0,West,3.5,-,N/A,,Mostly Cloudy,280,2013-05-02 03:56:00
9:56 PM,43.0,39.9,89,30.59,10.0,Calm,Calm,-,N/A,,Mostly Cloudy,0,2013-05-02 04:56:00
10:56 PM,43.0,39.0,86,30.58,10.0,Calm,Calm,-,N/A,,Scattered Clouds,0,2013-05-02 05:56:00
11:56 PM,42.1,39.0,89,30.58,10.0,Calm,Calm,-,N/A,,Scattered Clouds,0,2013-05-02 06:56:00